International Virtual Aviation Organisation

Russian Federation and Kazakhstan MCD

 

Карточка аэропорта UACC

Внимание!
Информация на этой странице в стадии наполнения.
Если вы не увидели какой-то информации, или заметили неточность - пожалуйста сообщите нам!
Спасибо!
Команда RU-STAFF
Название аэропортаНур-Султан
Название аэропорта (англ.)Nur-Sultan
Превышение1165 ft. (355.1 m.)
Координаты51°1.3319999999999', 71°28.014'
Высота перехода10000
Эшелон переходаby ATC
Коды ответчика0601-0627, 7201-7217
Зона ОрВДНур-Султан РПИ (UACN)
Данные METARUACC 091330Z 14003MPS 9999 SCT043CB BKN130 20/17 Q0998 R04/250355 NOSIG RMK QFE718/0957
Проноз погоды (TAF)UACC 091100Z 0912/1012 18006MPS 9999 SCT030CB BKN100 TX29/1010Z TN16/0923Z TEMPO 0912/0918 VRB18MPS 3100 TSRA SQ BKN020CB PROB40 TEMPO 0918/0921 -TSRA BKN020CB BECMG 1004/1006 20008MPS TEMPO 1006/1012 VRB17MPS 5000 -TSRA SQ BKN020CB
NOTAMshow/hide NOTAM
AWOS   TABLE

Информация о ВПП

ВПП Длина ВПП (м.) Покрытие Курс ВПП Частота ILS
043500Асфальтобетон35109.5
223500Асфальтобетон215111.7

Диспетчерские позиции

Позывной Наименование органа УВД Частота
UACC_APPНур-Султан Подход124.6
UACC_R_APPНур-Султан Круг120.7
UACC_TWRНур-Султан Вышка118.7
UACC_GNDНур-Султан Руление119.6



Спутниковое изображение